owner,sensor,date,latitude,longitude,vertical_datum,wind_speed,wind_to_direction,wind_speed_of_gust,qcFlag 
ENP,ioos.station.NOAA.NDBC:WRBF1:1,2017-12-01T00:00:00Z,25.0720,-80.7350,1.0,8.2,360.0,-9999.0,'1111122,1111122,1111122' 
ENP,ioos.station.NOAA.NDBC:WRBF1:1,2017-12-01T01:00:00Z,25.0720,-80.7350,1.0,7.7,360.0,-9999.0,'1111122,1111122,1111122' 
ENP,ioos.station.NOAA.NDBC:WRBF1:1,2017-12-01T03:00:00Z,25.0720,-80.7350,1.0,6.2,340.0,-9999.0,'1111122,1111122,1111122' 
ENP,ioos.station.NOAA.NDBC:WRBF1:1,2017-12-01T04:00:00Z,25.0720,-80.7350,1.0,5.7,340.0,-9999.0,'1111122,1111122,1111122' 
ENP,ioos.station.NOAA.NDBC:WRBF1:1,2017-12-01T06:00:00Z,25.0720,-80.7350,1.0,6.7,330.0,-9999.0,'1111122,1111122,1111122' 
ENP,ioos.station.NOAA.NDBC:WRBF1:1,2017-12-01T07:00:00Z,25.0720,-80.7350,1.0,6.2,330.0,-9999.0,'1111122,1111122,1111122' 
ENP,ioos.station.NOAA.NDBC:WRBF1:1,2017-12-01T08:00:00Z,25.0720,-80.7350,1.0,5.7,330.0,-9999.0,'1111122,1111122,1111122' 
ENP,ioos.station.NOAA.NDBC:WRBF1:1,2017-12-01T09:00:00Z,25.0720,-80.7350,1.0,6.2,320.0,-9999.0,'1111122,1111122,1111122' 
ENP,ioos.station.NOAA.NDBC:WRBF1:1,2017-12-01T11:00:00Z,25.0720,-80.7350,1.0,6.2,330.0,-9999.0,'1111122,1111122,1111122' 
ENP,ioos.station.NOAA.NDBC:WRBF1:1,2017-12-01T12:00:00Z,25.0720,-80.7350,1.0,6.2,330.0,-9999.0,'1111122,1111122,1111122' 
ENP,ioos.station.NOAA.NDBC:WRBF1:1,2017-12-01T13:00:00Z,25.0720,-80.7350,1.0,7.2,330.0,-9999.0,'1111122,1111122,1111122' 
ENP,ioos.station.NOAA.NDBC:WRBF1:1,2017-12-01T14:00:00Z,25.0720,-80.7350,1.0,6.7,330.0,-9999.0,'1111122,1111122,1111122' 
ENP,ioos.station.NOAA.NDBC:WRBF1:1,2017-12-01T15:00:00Z,25.0720,-80.7350,1.0,5.7,340.0,-9999.0,'1111122,1111122,1111122' 
ENP,ioos.station.NOAA.NDBC:WRBF1:1,2017-12-01T16:00:00Z,25.0720,-80.7350,1.0,6.2,350.0,-9999.0,'1111122,1111122,1111122' 
ENP,ioos.station.NOAA.NDBC:WRBF1:1,2017-12-01T17:00:00Z,25.0720,-80.7350,1.0,5.7,360.0,-9999.0,'1111122,1111122,1111122' 
ENP,ioos.station.NOAA.NDBC:WRBF1:1,2017-12-01T18:00:00Z,25.0720,-80.7350,1.0,5.1,10.0,-9999.0,'1111122,1111122,1111122' 
ENP,ioos.station.NOAA.NDBC:WRBF1:1,2017-12-01T19:00:00Z,25.0720,-80.7350,1.0,5.7,30.0,-9999.0,'1111122,1111122,1111122' 
ENP,ioos.station.NOAA.NDBC:WRBF1:1,2017-12-02T03:00:00Z,25.0720,-80.7350,1.0,5.7,340.0,-9999.0,'1111122,1111122,1111122' 
ENP,ioos.station.NOAA.NDBC:WRBF1:1,2017-12-02T05:00:00Z,25.0720,-80.7350,1.0,5.1,340.0,-9999.0,'1111122,1111122,1111122' 
ENP,ioos.station.NOAA.NDBC:WRBF1:1,2017-12-02T07:00:00Z,25.0720,-80.7350,1.0,4.1,350.0,-9999.0,'1111122,1111122,1111122' 
ENP,ioos.station.NOAA.NDBC:WRBF1:1,2017-12-02T08:00:00Z,25.0720,-80.7350,1.0,3.6,340.0,-9999.0,'1111122,1111122,1111122' 
ENP,ioos.station.NOAA.NDBC:WRBF1:1,2017-12-02T09:00:00Z,25.0720,-80.7350,1.0,4.1,340.0,-9999.0,'1111122,1111122,1111122' 
ENP,ioos.station.NOAA.NDBC:WRBF1:1,2017-12-02T11:00:00Z,25.0720,-80.7350,1.0,5.1,340.0,-9999.0,'1111122,1111122,1111122' 
ENP,ioos.station.NOAA.NDBC:WRBF1:1,2017-12-02T12:00:00Z,25.0720,-80.7350,1.0,5.7,340.0,-9999.0,'1111122,1111122,1111122' 
ENP,ioos.station.NOAA.NDBC:WRBF1:1,2017-12-02T13:00:00Z,25.0720,-80.7350,1.0,5.7,340.0,-9999.0,'1111122,1111122,1111122' 
ENP,ioos.station.NOAA.NDBC:WRBF1:1,2017-12-02T14:00:00Z,25.0720,-80.7350,1.0,5.1,340.0,-9999.0,'1111122,1111122,1111122' 
ENP,ioos.station.NOAA.NDBC:WRBF1:1,2017-12-02T15:00:00Z,25.0720,-80.7350,1.0,6.2,350.0,-9999.0,'1111122,1111122,1111122' 
ENP,ioos.station.NOAA.NDBC:WRBF1:1,2017-12-02T16:00:00Z,25.0720,-80.7350,1.0,6.2,10.0,-9999.0,'1111122,1111122,1111122' 
ENP,ioos.station.NOAA.NDBC:WRBF1:1,2017-12-02T17:00:00Z,25.0720,-80.7350,1.0,6.2,20.0,-9999.0,'1111122,1111122,1111122' 
ENP,ioos.station.NOAA.NDBC:WRBF1:1,2017-12-02T18:00:00Z,25.0720,-80.7350,1.0,6.2,20.0,-9999.0,'1111122,1111122,1111122' 
ENP,ioos.station.NOAA.NDBC:WRBF1:1,2017-12-02T19:00:00Z,25.0720,-80.7350,1.0,7.2,20.0,-9999.0,'1111122,1111122,1111122' 
ENP,ioos.station.NOAA.NDBC:WRBF1:1,2017-12-02T20:00:00Z,25.0720,-80.7350,1.0,6.7,20.0,-9999.0,'1111122,1111122,1111122' 
ENP,ioos.station.NOAA.NDBC:WRBF1:1,2017-12-02T21:00:00Z,25.0720,-80.7350,1.0,6.7,20.0,-9999.0,'1111122,1111122,1111122' 
ENP,ioos.station.NOAA.NDBC:WRBF1:1,2017-12-02T23:00:00Z,25.0720,-80.7350,1.0,6.7,20.0,-9999.0,'1111122,1111122,1111122' 
ENP,ioos.station.NOAA.NDBC:WRBF1:1,2017-12-03T00:00:00Z,25.0720,-80.7350,1.0,6.2,10.0,-9999.0,'1111122,1111122,1111122' 
ENP,ioos.station.NOAA.NDBC:WRBF1:1,2017-12-03T01:00:00Z,25.0720,-80.7350,1.0,4.6,360.0,-9999.0,'1111122,1111122,1111122' 
ENP,ioos.station.NOAA.NDBC:WRBF1:1,2017-12-03T03:00:00Z,25.0720,-80.7350,1.0,3.6,360.0,-9999.0,'1111122,1111122,1111122' 
ENP,ioos.station.NOAA.NDBC:WRBF1:1,2017-12-03T04:00:00Z,25.0720,-80.7350,1.0,3.6,340.0,-9999.0,'1111122,1111122,1111122' 
ENP,ioos.station.NOAA.NDBC:WRBF1:1,2017-12-03T06:00:00Z,25.0720,-80.7350,1.0,4.1,340.0,-9999.0,'1111122,1111122,1111122' 
ENP,ioos.station.NOAA.NDBC:WRBF1:1,2017-12-03T07:00:00Z,25.0720,-80.7350,1.0,5.1,340.0,-9999.0,'1111122,1111122,1111122' 
ENP,ioos.station.NOAA.NDBC:WRBF1:1,2017-12-03T08:00:00Z,25.0720,-80.7350,1.0,5.1,340.0,-9999.0,'1111122,1111122,1111122' 
ENP,ioos.station.NOAA.NDBC:WRBF1:1,2017-12-03T09:00:00Z,25.0720,-80.7350,1.0,4.6,340.0,-9999.0,'1111122,1111122,1111122' 
ENP,ioos.station.NOAA.NDBC:WRBF1:1,2017-12-03T12:00:00Z,25.0720,-80.7350,1.0,5.1,340.0,-9999.0,'1111122,1111122,1111122' 
ENP,ioos.station.NOAA.NDBC:WRBF1:1,2017-12-03T13:00:00Z,25.0720,-80.7350,1.0,4.6,340.0,-9999.0,'1111122,1111122,1111122' 
ENP,ioos.station.NOAA.NDBC:WRBF1:1,2017-12-03T14:00:00Z,25.0720,-80.7350,1.0,5.1,340.0,-9999.0,'1111122,1111122,1111122' 
ENP,ioos.station.NOAA.NDBC:WRBF1:1,2017-12-03T15:00:00Z,25.0720,-80.7350,1.0,5.1,350.0,-9999.0,'1111122,1111122,1111122' 
ENP,ioos.station.NOAA.NDBC:WRBF1:1,2017-12-03T16:00:00Z,25.0720,-80.7350,1.0,5.1,360.0,-9999.0,'1111122,1111122,1111122' 
ENP,ioos.station.NOAA.NDBC:WRBF1:1,2017-12-03T17:00:00Z,25.0720,-80.7350,1.0,4.6,20.0,-9999.0,'1111122,1111122,1111122' 
ENP,ioos.station.NOAA.NDBC:WRBF1:1,2017-12-03T18:00:00Z,25.0720,-80.7350,1.0,3.6,50.0,-9999.0,'1111122,1111122,1111122' 
ENP,ioos.station.NOAA.NDBC:WRBF1:1,2017-12-03T19:00:00Z,25.0720,-80.7350,1.0,4.1,50.0,-9999.0,'1111122,1111122,1111122' 
ENP,ioos.station.NOAA.NDBC:WRBF1:1,2017-12-03T20:00:00Z,25.0720,-80.7350,1.0,4.1,40.0,-9999.0,'1111122,1111122,1111122' 
ENP,ioos.station.NOAA.NDBC:WRBF1:1,2017-12-03T21:00:00Z,25.0720,-80.7350,1.0,4.1,40.0,-9999.0,'1111122,1111122,1111122' 
ENP,ioos.station.NOAA.NDBC:WRBF1:1,2017-12-03T22:00:00Z,25.0720,-80.7350,1.0,5.1,30.0,-9999.0,'1111122,1111122,1111122' 
ENP,ioos.station.NOAA.NDBC:WRBF1:1,2017-12-04T01:00:00Z,25.0720,-80.7350,1.0,5.7,360.0,-9999.0,'1111122,1111122,1111122' 
ENP,ioos.station.NOAA.NDBC:WRBF1:1,2017-12-04T03:00:00Z,25.0720,-80.7350,1.0,4.6,10.0,-9999.0,'1111122,1111122,1111122' 
ENP,ioos.station.NOAA.NDBC:WRBF1:1,2017-12-04T04:00:00Z,25.0720,-80.7350,1.0,4.1,360.0,-9999.0,'1111122,1111122,1111122' 
ENP,ioos.station.NOAA.NDBC:WRBF1:1,2017-12-04T06:00:00Z,25.0720,-80.7350,1.0,3.6,350.0,-9999.0,'1111122,1111122,1111122' 
ENP,ioos.station.NOAA.NDBC:WRBF1:1,2017-12-04T07:00:00Z,25.0720,-80.7350,1.0,3.6,340.0,-9999.0,'1111122,1111122,1111122' 
ENP,ioos.station.NOAA.NDBC:WRBF1:1,2017-12-04T08:00:00Z,25.0720,-80.7350,1.0,4.6,340.0,-9999.0,'1111122,1111122,1111122' 
ENP,ioos.station.NOAA.NDBC:WRBF1:1,2017-12-04T09:00:00Z,25.0720,-80.7350,1.0,4.6,350.0,-9999.0,'1111122,1111122,1111122' 
ENP,ioos.station.NOAA.NDBC:WRBF1:1,2017-12-04T11:00:00Z,25.0720,-80.7350,1.0,4.6,350.0,-9999.0,'1111122,1111122,1111122' 
ENP,ioos.station.NOAA.NDBC:WRBF1:1,2017-12-04T12:00:00Z,25.0720,-80.7350,1.0,4.6,350.0,-9999.0,'1111122,1111122,1111122' 
ENP,ioos.station.NOAA.NDBC:WRBF1:1,2017-12-04T13:00:00Z,25.0720,-80.7350,1.0,2.1,350.0,-9999.0,'1111122,1111122,1111122' 
ENP,ioos.station.NOAA.NDBC:WRBF1:1,2017-12-04T14:00:00Z,25.0720,-80.7350,1.0,4.1,360.0,-9999.0,'1111122,1111122,1111122' 
ENP,ioos.station.NOAA.NDBC:WRBF1:1,2017-12-04T15:00:00Z,25.0720,-80.7350,1.0,5.1,10.0,-9999.0,'1111122,1111122,1111122' 
ENP,ioos.station.NOAA.NDBC:WRBF1:1,2017-12-04T16:00:00Z,25.0720,-80.7350,1.0,6.2,30.0,-9999.0,'1111122,1111122,1111122' 
ENP,ioos.station.NOAA.NDBC:WRBF1:1,2017-12-04T17:00:00Z,25.0720,-80.7350,1.0,6.2,30.0,-9999.0,'1111122,1111122,1111122' 
ENP,ioos.station.NOAA.NDBC:WRBF1:1,2017-12-04T18:00:00Z,25.0720,-80.7350,1.0,5.1,50.0,-9999.0,'1111122,1111122,1111122' 
ENP,ioos.station.NOAA.NDBC:WRBF1:1,2017-12-04T19:00:00Z,25.0720,-80.7350,1.0,5.1,40.0,-9999.0,'1111122,1111122,1111122' 
ENP,ioos.station.NOAA.NDBC:WRBF1:1,2017-12-04T20:00:00Z,25.0720,-80.7350,1.0,5.7,40.0,-9999.0,'1111122,1111122,1111122' 
ENP,ioos.station.NOAA.NDBC:WRBF1:1,2017-12-04T21:00:00Z,25.0720,-80.7350,1.0,6.7,30.0,-9999.0,'1111122,1111122,1111122' 
ENP,ioos.station.NOAA.NDBC:WRBF1:1,2017-12-04T22:00:00Z,25.0720,-80.7350,1.0,5.7,30.0,-9999.0,'1111122,1111122,1111122' 
ENP,ioos.station.NOAA.NDBC:WRBF1:1,2017-12-04T23:00:00Z,25.0720,-80.7350,1.0,5.7,30.0,-9999.0,'1111122,1111122,1111122' 
ENP,ioos.station.NOAA.NDBC:WRBF1:1,2017-12-05T12:00:00Z,25.0720,-80.7350,1.0,3.1,30.0,-9999.0,'1111122,1111122,1111122' 
ENP,ioos.station.NOAA.NDBC:WRBF1:1,2017-12-05T13:00:00Z,25.0720,-80.7350,1.0,3.6,30.0,-9999.0,'1111122,1111122,1111122' 
ENP,ioos.station.NOAA.NDBC:WRBF1:1,2017-12-05T14:00:00Z,25.0720,-80.7350,1.0,1.5,40.0,-9999.0,'1111122,1111122,1111122' 
ENP,ioos.station.NOAA.NDBC:WRBF1:1,2017-12-05T15:00:00Z,25.0720,-80.7350,1.0,4.1,60.0,-9999.0,'1111122,1111122,1111122' 
ENP,ioos.station.NOAA.NDBC:WRBF1:1,2017-12-05T16:00:00Z,25.0720,-80.7350,1.0,5.1,60.0,-9999.0,'1111122,1111122,1111122' 
ENP,ioos.station.NOAA.NDBC:WRBF1:1,2017-12-05T17:00:00Z,25.0720,-80.7350,1.0,4.6,60.0,-9999.0,'1111122,1111122,1111122' 
ENP,ioos.station.NOAA.NDBC:WRBF1:1,2017-12-05T18:00:00Z,25.0720,-80.7350,1.0,4.6,60.0,-9999.0,'1111122,1111122,1111122' 
ENP,ioos.station.NOAA.NDBC:WRBF1:1,2017-12-05T19:00:00Z,25.0720,-80.7350,1.0,4.6,60.0,-9999.0,'1111122,1111122,1111122' 
ENP,ioos.station.NOAA.NDBC:WRBF1:1,2017-12-05T20:00:00Z,25.0720,-80.7350,1.0,4.6,50.0,-9999.0,'1111122,1111122,1111122' 
ENP,ioos.station.NOAA.NDBC:WRBF1:1,2017-12-05T21:00:00Z,25.0720,-80.7350,1.0,4.6,40.0,-9999.0,'1111122,1111122,1111122' 
ENP,ioos.station.NOAA.NDBC:WRBF1:1,2017-12-05T22:00:00Z,25.0720,-80.7350,1.0,4.1,40.0,-9999.0,'1111122,1111122,1111122' 
ENP,ioos.station.NOAA.NDBC:WRBF1:1,2017-12-05T23:00:00Z,25.0720,-80.7350,1.0,4.1,40.0,-9999.0,'1111122,1111122,1111122' 
ENP,ioos.station.NOAA.NDBC:WRBF1:1,2017-12-06T00:00:00Z,25.0720,-80.7350,1.0,4.1,30.0,-9999.0,'1111122,1111122,1111122' 
ENP,ioos.station.NOAA.NDBC:WRBF1:1,2017-12-06T01:00:00Z,25.0720,-80.7350,1.0,3.6,30.0,-9999.0,'1111122,1111122,1111122' 
ENP,ioos.station.NOAA.NDBC:WRBF1:1,2017-12-06T03:00:00Z,25.0720,-80.7350,1.0,3.1,30.0,-9999.0,'1111122,1111122,1111122' 
ENP,ioos.station.NOAA.NDBC:WRBF1:1,2017-12-06T04:00:00Z,25.0720,-80.7350,1.0,2.6,30.0,-9999.0,'1111122,1111122,1111122' 
ENP,ioos.station.NOAA.NDBC:WRBF1:1,2017-12-06T06:00:00Z,25.0720,-80.7350,1.0,2.6,60.0,-9999.0,'1111122,1111122,1111122' 
ENP,ioos.station.NOAA.NDBC:WRBF1:1,2017-12-06T07:00:00Z,25.0720,-80.7350,1.0,2.6,70.0,-9999.0,'1111122,1111122,1111122' 
ENP,ioos.station.NOAA.NDBC:WRBF1:1,2017-12-06T08:00:00Z,25.0720,-80.7350,1.0,2.6,70.0,-9999.0,'1111122,1111122,1111122' 
ENP,ioos.station.NOAA.NDBC:WRBF1:1,2017-12-06T09:00:00Z,25.0720,-80.7350,1.0,2.6,60.0,-9999.0,'1111122,1111122,1111122' 
ENP,ioos.station.NOAA.NDBC:WRBF1:1,2017-12-06T12:00:00Z,25.0720,-80.7350,1.0,2.6,40.0,-9999.0,'1111122,1111122,1111122' 
ENP,ioos.station.NOAA.NDBC:WRBF1:1,2017-12-06T13:00:00Z,25.0720,-80.7350,1.0,2.1,40.0,-9999.0,'1111122,1111122,1111122' 
ENP,ioos.station.NOAA.NDBC:WRBF1:1,2017-12-06T14:00:00Z,25.0720,-80.7350,1.0,2.6,60.0,-9999.0,'1111122,1111122,1111122' 
ENP,ioos.station.NOAA.NDBC:WRBF1:1,2017-12-06T15:00:00Z,25.0720,-80.7350,1.0,2.1,60.0,-9999.0,'1111122,1111122,1111122' 
ENP,ioos.station.NOAA.NDBC:WRBF1:1,2017-12-06T16:00:00Z,25.0720,-80.7350,1.0,2.6,70.0,-9999.0,'1111122,1111122,1111122' 
ENP,ioos.station.NOAA.NDBC:WRBF1:1,2017-12-06T17:00:00Z,25.0720,-80.7350,1.0,3.1,70.0,-9999.0,'1111122,1111122,1111122' 
ENP,ioos.station.NOAA.NDBC:WRBF1:1,2017-12-06T18:00:00Z,25.0720,-80.7350,1.0,3.1,70.0,-9999.0,'1111122,1111122,1111122' 
ENP,ioos.station.NOAA.NDBC:WRBF1:1,2017-12-06T19:00:00Z,25.0720,-80.7350,1.0,2.6,70.0,-9999.0,'1111122,1111122,1111122' 
ENP,ioos.station.NOAA.NDBC:WRBF1:1,2017-12-06T20:00:00Z,25.0720,-80.7350,1.0,2.1,60.0,-9999.0,'1111122,1111122,1111122' 
ENP,ioos.station.NOAA.NDBC:WRBF1:1,2017-12-06T21:00:00Z,25.0720,-80.7350,1.0,2.1,60.0,-9999.0,'1111122,1111122,1111122' 
ENP,ioos.station.NOAA.NDBC:WRBF1:1,2017-12-06T22:00:00Z,25.0720,-80.7350,1.0,2.6,70.0,-9999.0,'1111122,1111122,1111122' 
ENP,ioos.station.NOAA.NDBC:WRBF1:1,2017-12-06T23:00:00Z,25.0720,-80.7350,1.0,2.1,60.0,-9999.0,'1111122,1111122,1111122' 
ENP,ioos.station.NOAA.NDBC:WRBF1:1,2017-12-07T00:00:00Z,25.0720,-80.7350,1.0,2.1,50.0,-9999.0,'1111122,1111122,1111122' 
ENP,ioos.station.NOAA.NDBC:WRBF1:1,2017-12-07T01:00:00Z,25.0720,-80.7350,1.0,2.6,30.0,-9999.0,'1111122,1111122,1111122' 
ENP,ioos.station.NOAA.NDBC:WRBF1:1,2017-12-07T03:00:00Z,25.0720,-80.7350,1.0,3.1,40.0,-9999.0,'1111122,1111122,1111122' 
ENP,ioos.station.NOAA.NDBC:WRBF1:1,2017-12-07T04:00:00Z,25.0720,-80.7350,1.0,2.6,30.0,-9999.0,'1111122,1111122,1111122' 
ENP,ioos.station.NOAA.NDBC:WRBF1:1,2017-12-07T06:00:00Z,25.0720,-80.7350,1.0,2.1,20.0,-9999.0,'1111122,1111122,1111122' 
ENP,ioos.station.NOAA.NDBC:WRBF1:1,2017-12-07T07:00:00Z,25.0720,-80.7350,1.0,2.1,10.0,-9999.0,'1111122,1111122,1111122' 
ENP,ioos.station.NOAA.NDBC:WRBF1:1,2017-12-07T08:00:00Z,25.0720,-80.7350,1.0,3.1,360.0,-9999.0,'1111122,1111122,1111122' 
ENP,ioos.station.NOAA.NDBC:WRBF1:1,2017-12-07T09:00:00Z,25.0720,-80.7350,1.0,3.1,360.0,-9999.0,'1111122,1111122,1111122' 
ENP,ioos.station.NOAA.NDBC:WRBF1:1,2017-12-07T12:00:00Z,25.0720,-80.7350,1.0,2.6,20.0,-9999.0,'1111122,1111122,1111122' 
ENP,ioos.station.NOAA.NDBC:WRBF1:1,2017-12-07T13:00:00Z,25.0720,-80.7350,1.0,2.6,20.0,-9999.0,'1111122,1111122,1111122' 
ENP,ioos.station.NOAA.NDBC:WRBF1:1,2017-12-07T14:00:00Z,25.0720,-80.7350,1.0,2.6,20.0,-9999.0,'1111122,1111122,1111122' 
ENP,ioos.station.NOAA.NDBC:WRBF1:1,2017-12-07T15:00:00Z,25.0720,-80.7350,1.0,2.6,40.0,-9999.0,'1111122,1111122,1111122' 
ENP,ioos.station.NOAA.NDBC:WRBF1:1,2017-12-07T16:00:00Z,25.0720,-80.7350,1.0,2.1,50.0,-9999.0,'1111122,1111122,1111122' 
ENP,ioos.station.NOAA.NDBC:WRBF1:1,2017-12-07T17:00:00Z,25.0720,-80.7350,1.0,1.5,50.0,-9999.0,'1111122,1111122,1111122' 
ENP,ioos.station.NOAA.NDBC:WRBF1:1,2017-12-07T18:00:00Z,25.0720,-80.7350,1.0,1.5,70.0,-9999.0,'1111122,1111122,1111122' 
ENP,ioos.station.NOAA.NDBC:WRBF1:1,2017-12-07T19:00:00Z,25.0720,-80.7350,1.0,2.1,70.0,-9999.0,'1111122,1111122,1111122' 
ENP,ioos.station.NOAA.NDBC:WRBF1:1,2017-12-07T22:00:00Z,25.0720,-80.7350,1.0,2.6,80.0,-9999.0,'1111122,1111122,1111122' 
ENP,ioos.station.NOAA.NDBC:WRBF1:1,2017-12-07T23:00:00Z,25.0720,-80.7350,1.0,2.6,90.0,-9999.0,'1111122,1111122,1111122' 
ENP,ioos.station.NOAA.NDBC:WRBF1:1,2017-12-08T00:00:00Z,25.0720,-80.7350,1.0,2.1,80.0,-9999.0,'1111122,1111122,1111122' 
ENP,ioos.station.NOAA.NDBC:WRBF1:1,2017-12-08T01:00:00Z,25.0720,-80.7350,1.0,2.1,90.0,-9999.0,'1111122,1111122,1111122' 
ENP,ioos.station.NOAA.NDBC:WRBF1:1,2017-12-08T03:00:00Z,25.0720,-80.7350,1.0,1.5,90.0,-9999.0,'1111122,1111122,1111122' 
ENP,ioos.station.NOAA.NDBC:WRBF1:1,2017-12-08T04:00:00Z,25.0720,-80.7350,1.0,2.1,90.0,-9999.0,'1111122,1111122,1111122' 
ENP,ioos.station.NOAA.NDBC:WRBF1:1,2017-12-08T06:00:00Z,25.0720,-80.7350,1.0,2.1,100.0,-9999.0,'1111122,1111122,1111122' 
ENP,ioos.station.NOAA.NDBC:WRBF1:1,2017-12-08T07:00:00Z,25.0720,-80.7350,1.0,2.6,110.0,-9999.0,'1111122,1111122,1111122' 
ENP,ioos.station.NOAA.NDBC:WRBF1:1,2017-12-08T08:00:00Z,25.0720,-80.7350,1.0,2.6,110.0,-9999.0,'1111122,1111122,1111122' 
ENP,ioos.station.NOAA.NDBC:WRBF1:1,2017-12-08T09:00:00Z,25.0720,-80.7350,1.0,2.1,120.0,-9999.0,'1111122,1111122,1111122' 
ENP,ioos.station.NOAA.NDBC:WRBF1:1,2017-12-08T11:00:00Z,25.0720,-80.7350,1.0,2.1,140.0,-9999.0,'1111122,1111122,1111122' 
ENP,ioos.station.NOAA.NDBC:WRBF1:1,2017-12-08T12:00:00Z,25.0720,-80.7350,1.0,2.1,140.0,-9999.0,'1111122,1111122,1111122' 
ENP,ioos.station.NOAA.NDBC:WRBF1:1,2017-12-08T13:00:00Z,25.0720,-80.7350,1.0,1.5,130.0,-9999.0,'1111122,1111122,1111122' 
ENP,ioos.station.NOAA.NDBC:WRBF1:1,2017-12-08T14:00:00Z,25.0720,-80.7350,1.0,1.5,140.0,-9999.0,'1111122,1111122,1111122' 
ENP,ioos.station.NOAA.NDBC:WRBF1:1,2017-12-08T16:00:00Z,25.0720,-80.7350,1.0,2.6,150.0,-9999.0,'1111122,1111122,1111122' 
ENP,ioos.station.NOAA.NDBC:WRBF1:1,2017-12-08T17:00:00Z,25.0720,-80.7350,1.0,2.6,140.0,-9999.0,'1111122,1111122,1111122' 
ENP,ioos.station.NOAA.NDBC:WRBF1:1,2017-12-08T18:00:00Z,25.0720,-80.7350,1.0,2.6,140.0,-9999.0,'1111122,1111122,1111122' 
ENP,ioos.station.NOAA.NDBC:WRBF1:1,2017-12-08T19:00:00Z,25.0720,-80.7350,1.0,3.1,150.0,-9999.0,'1111122,1111122,1111122' 
ENP,ioos.station.NOAA.NDBC:WRBF1:1,2017-12-08T20:00:00Z,25.0720,-80.7350,1.0,2.6,130.0,-9999.0,'1111122,1111122,1111122' 
ENP,ioos.station.NOAA.NDBC:WRBF1:1,2017-12-08T21:00:00Z,25.0720,-80.7350,1.0,3.1,140.0,-9999.0,'1111122,1111122,1111122' 
ENP,ioos.station.NOAA.NDBC:WRBF1:1,2017-12-08T22:00:00Z,25.0720,-80.7350,1.0,3.1,140.0,-9999.0,'1111122,1111122,1111122' 
ENP,ioos.station.NOAA.NDBC:WRBF1:1,2017-12-08T23:00:00Z,25.0720,-80.7350,1.0,2.6,150.0,-9999.0,'1111122,1111122,1111122' 
ENP,ioos.station.NOAA.NDBC:WRBF1:1,2017-12-09T00:00:00Z,25.0720,-80.7350,1.0,2.6,140.0,-9999.0,'1111122,1111122,1111122' 
ENP,ioos.station.NOAA.NDBC:WRBF1:1,2017-12-09T01:00:00Z,25.0720,-80.7350,1.0,2.6,140.0,-9999.0,'1111122,1111122,1111122' 
ENP,ioos.station.NOAA.NDBC:WRBF1:1,2017-12-09T03:00:00Z,25.0720,-80.7350,1.0,2.6,130.0,-9999.0,'1111122,1111122,1111122' 
ENP,ioos.station.NOAA.NDBC:WRBF1:1,2017-12-09T04:00:00Z,25.0720,-80.7350,1.0,3.1,120.0,-9999.0,'1111122,1111122,1111122' 
ENP,ioos.station.NOAA.NDBC:WRBF1:1,2017-12-09T06:00:00Z,25.0720,-80.7350,1.0,3.6,140.0,-9999.0,'1111122,1111122,1111122' 
ENP,ioos.station.NOAA.NDBC:WRBF1:1,2017-12-09T07:00:00Z,25.0720,-80.7350,1.0,4.1,150.0,-9999.0,'1111122,1111122,1111122' 
ENP,ioos.station.NOAA.NDBC:WRBF1:1,2017-12-09T08:00:00Z,25.0720,-80.7350,1.0,4.1,150.0,-9999.0,'1111122,1111122,1111122' 
ENP,ioos.station.NOAA.NDBC:WRBF1:1,2017-12-09T09:00:00Z,25.0720,-80.7350,1.0,4.1,140.0,-9999.0,'1111122,1111122,1111122' 
ENP,ioos.station.NOAA.NDBC:WRBF1:1,2017-12-09T11:00:00Z,25.0720,-80.7350,1.0,6.2,160.0,-9999.0,'1111122,1111122,1111122' 
ENP,ioos.station.NOAA.NDBC:WRBF1:1,2017-12-09T12:00:00Z,25.0720,-80.7350,1.0,6.2,160.0,-9999.0,'1111122,1111122,1111122' 
ENP,ioos.station.NOAA.NDBC:WRBF1:1,2017-12-09T13:00:00Z,25.0720,-80.7350,1.0,4.6,160.0,-9999.0,'1111122,1111122,1111122' 
ENP,ioos.station.NOAA.NDBC:WRBF1:1,2017-12-09T14:00:00Z,25.0720,-80.7350,1.0,5.1,160.0,-9999.0,'1111122,1111122,1111122' 
ENP,ioos.station.NOAA.NDBC:WRBF1:1,2017-12-09T15:00:00Z,25.0720,-80.7350,1.0,5.1,220.0,-9999.0,'1111122,1111122,1111122' 
ENP,ioos.station.NOAA.NDBC:WRBF1:1,2017-12-09T16:00:00Z,25.0720,-80.7350,1.0,11.8,280.0,-9999.0,'1111122,1111122,1111122' 
ENP,ioos.station.NOAA.NDBC:WRBF1:1,2017-12-09T17:00:00Z,25.0720,-80.7350,1.0,9.3,280.0,-9999.0,'1111122,1111122,1111122' 
ENP,ioos.station.NOAA.NDBC:WRBF1:1,2017-12-09T18:00:00Z,25.0720,-80.7350,1.0,7.7,300.0,-9999.0,'1111122,1111122,1111122' 
ENP,ioos.station.NOAA.NDBC:WRBF1:1,2017-12-09T19:00:00Z,25.0720,-80.7350,1.0,2.6,320.0,-9999.0,'1111122,1111122,1111122' 
ENP,ioos.station.NOAA.NDBC:WRBF1:1,2017-12-09T20:00:00Z,25.0720,-80.7350,1.0,5.1,300.0,-9999.0,'1111122,1111122,1111122' 
ENP,ioos.station.NOAA.NDBC:WRBF1:1,2017-12-09T21:00:00Z,25.0720,-80.7350,1.0,7.2,300.0,-9999.0,'1111122,1111122,1111122' 
ENP,ioos.station.NOAA.NDBC:WRBF1:1,2017-12-09T22:00:00Z,25.0720,-80.7350,1.0,6.7,300.0,-9999.0,'1111122,1111122,1111122' 
ENP,ioos.station.NOAA.NDBC:WRBF1:1,2017-12-09T23:00:00Z,25.0720,-80.7350,1.0,8.8,300.0,-9999.0,'1111122,1111122,1111122' 
ENP,ioos.station.NOAA.NDBC:WRBF1:1,2017-12-10T00:00:00Z,25.0720,-80.7350,1.0,8.2,310.0,-9999.0,'1111122,1111122,1111122' 
ENP,ioos.station.NOAA.NDBC:WRBF1:1,2017-12-10T01:00:00Z,25.0720,-80.7350,1.0,9.8,310.0,-9999.0,'1111122,1111122,1111122' 
ENP,ioos.station.NOAA.NDBC:WRBF1:1,2017-12-10T03:00:00Z,25.0720,-80.7350,1.0,9.3,320.0,-9999.0,'1111122,1111122,1111122' 
ENP,ioos.station.NOAA.NDBC:WRBF1:1,2017-12-10T04:00:00Z,25.0720,-80.7350,1.0,8.8,310.0,-9999.0,'1111122,1111122,1111122' 
ENP,ioos.station.NOAA.NDBC:WRBF1:1,2017-12-10T06:00:00Z,25.0720,-80.7350,1.0,11.3,310.0,-9999.0,'1111122,1111122,1111122' 
ENP,ioos.station.NOAA.NDBC:WRBF1:1,2017-12-10T07:00:00Z,25.0720,-80.7350,1.0,10.3,310.0,-9999.0,'1111122,1111122,1111122' 
ENP,ioos.station.NOAA.NDBC:WRBF1:1,2017-12-10T08:00:00Z,25.0720,-80.7350,1.0,11.8,300.0,-9999.0,'1111122,1111122,1111122' 
ENP,ioos.station.NOAA.NDBC:WRBF1:1,2017-12-10T09:00:00Z,25.0720,-80.7350,1.0,11.3,300.0,-9999.0,'1111122,1111122,1111122' 
ENP,ioos.station.NOAA.NDBC:WRBF1:1,2017-12-10T12:00:00Z,25.0720,-80.7350,1.0,11.3,310.0,-9999.0,'1111122,1111122,1111122' 
ENP,ioos.station.NOAA.NDBC:WRBF1:1,2017-12-10T13:00:00Z,25.0720,-80.7350,1.0,10.8,310.0,-9999.0,'1111122,1111122,1111122' 
ENP,ioos.station.NOAA.NDBC:WRBF1:1,2017-12-10T14:00:00Z,25.0720,-80.7350,1.0,10.8,320.0,-9999.0,'1111122,1111122,1111122' 
ENP,ioos.station.NOAA.NDBC:WRBF1:1,2017-12-10T15:00:00Z,25.0720,-80.7350,1.0,10.8,320.0,-9999.0,'1111122,1111122,1111122' 
ENP,ioos.station.NOAA.NDBC:WRBF1:1,2017-12-10T16:00:00Z,25.0720,-80.7350,1.0,10.3,320.0,-9999.0,'1111122,1111122,1111122' 
ENP,ioos.station.NOAA.NDBC:WRBF1:1,2017-12-10T17:00:00Z,25.0720,-80.7350,1.0,9.3,320.0,-9999.0,'1111122,1111122,1111122' 
ENP,ioos.station.NOAA.NDBC:WRBF1:1,2017-12-10T18:00:00Z,25.0720,-80.7350,1.0,8.2,320.0,-9999.0,'1111122,1111122,1111122' 
ENP,ioos.station.NOAA.NDBC:WRBF1:1,2017-12-10T19:00:00Z,25.0720,-80.7350,1.0,7.2,330.0,-9999.0,'1111122,1111122,1111122' 
ENP,ioos.station.NOAA.NDBC:WRBF1:1,2017-12-10T20:00:00Z,25.0720,-80.7350,1.0,7.2,320.0,-9999.0,'1111122,1111122,1111122' 
ENP,ioos.station.NOAA.NDBC:WRBF1:1,2017-12-10T21:00:00Z,25.0720,-80.7350,1.0,6.7,320.0,-9999.0,'1111122,1111122,1111122' 
ENP,ioos.station.NOAA.NDBC:WRBF1:1,2017-12-10T22:00:00Z,25.0720,-80.7350,1.0,6.2,330.0,-9999.0,'1111122,1111122,1111122' 
ENP,ioos.station.NOAA.NDBC:WRBF1:1,2017-12-10T23:00:00Z,25.0720,-80.7350,1.0,6.2,330.0,-9999.0,'1111122,1111122,1111122' 
ENP,ioos.station.NOAA.NDBC:WRBF1:1,2017-12-11T00:00:00Z,25.0720,-80.7350,1.0,6.2,320.0,-9999.0,'1111122,1111122,1111122' 
ENP,ioos.station.NOAA.NDBC:WRBF1:1,2017-12-11T01:00:00Z,25.0720,-80.7350,1.0,6.7,320.0,-9999.0,'1111122,1111122,1111122' 
ENP,ioos.station.NOAA.NDBC:WRBF1:1,2017-12-11T03:00:00Z,25.0720,-80.7350,1.0,7.7,310.0,-9999.0,'1111122,1111122,1111122' 
ENP,ioos.station.NOAA.NDBC:WRBF1:1,2017-12-11T04:00:00Z,25.0720,-80.7350,1.0,6.7,300.0,-9999.0,'1111122,1111122,1111122' 
ENP,ioos.station.NOAA.NDBC:WRBF1:1,2017-12-11T06:00:00Z,25.0720,-80.7350,1.0,7.7,300.0,-9999.0,'1111122,1111122,1111122' 
ENP,ioos.station.NOAA.NDBC:WRBF1:1,2017-12-11T07:00:00Z,25.0720,-80.7350,1.0,7.7,300.0,-9999.0,'1111122,1111122,1111122' 
ENP,ioos.station.NOAA.NDBC:WRBF1:1,2017-12-11T08:00:00Z,25.0720,-80.7350,1.0,7.7,300.0,-9999.0,'1111122,1111122,1111122' 
ENP,ioos.station.NOAA.NDBC:WRBF1:1,2017-12-11T09:00:00Z,25.0720,-80.7350,1.0,8.2,300.0,-9999.0,'1111122,1111122,1111122' 
ENP,ioos.station.NOAA.NDBC:WRBF1:1,2017-12-11T11:00:00Z,25.0720,-80.7350,1.0,8.2,310.0,-9999.0,'1111122,1111122,1111122' 
ENP,ioos.station.NOAA.NDBC:WRBF1:1,2017-12-11T12:00:00Z,25.0720,-80.7350,1.0,8.8,310.0,-9999.0,'1111122,1111122,1111122' 
ENP,ioos.station.NOAA.NDBC:WRBF1:1,2017-12-11T13:00:00Z,25.0720,-80.7350,1.0,8.8,320.0,-9999.0,'1111122,1111122,1111122' 
ENP,ioos.station.NOAA.NDBC:WRBF1:1,2017-12-11T14:00:00Z,25.0720,-80.7350,1.0,7.7,320.0,-9999.0,'1111122,1111122,1111122' 